Regional Weather Roundup
Issued by NWS

Home | Current Version | Previous Version | Graphics & Text | Print | Product List | Glossary Off
Versions: 1 2 3 4 5 6 7 8 9 10 11 12 13 14 15 16 17 18 19 20 21 22 23 24 25 26 27 28 29 30 31 32 33 34 35 36 37 38 39 40 41 42 43 44 45 46 47 48 49 50

006
ASUS43 KLSX 280607
RWRMO

WEATHER SUMMARY FOR MISSOURI
NATIONAL WEATHER SERVICE SPRINGFIELD MO
1200 AM CST TUE FEB 28 2017

NOTE: "FAIR" INDICATES FEW OR NO CLOUDS BELOW 12,000 FEET WITH NO
       SIGNIFICANT WEATHER AND/OR OBSTRUCTIONS TO VISIBILITY.
       CURRENT SKY AND/OR WEATHER CONDITIONS ARE NOT AVAILABLE FOR
       CHILLICOTHE AND FARMINGTON.

MOZ001>031-035>038-043-044-053-054-280700-
...NORTHERN AND WESTERN MISSOURI...

CITY           SKY/WX    TMP DP  RH WIND       PRES   REMARKS
KANSAS CTY INT CLOUDY    58  52  80 S14       29.74F
6HR MIN TEMP:  55; 6HR MAX TEMP:  60;

KANSAS C DTWN  PTCLDY    61  53  75 S12       29.74F
6HR MIN TEMP:  59; 6HR MAX TEMP:  63;

LEE`S SUMMIT   MOCLDY    59  53  80 S14       29.77F
6HR MIN TEMP:  58; 6HR MAX TEMP:  62;

ST JOSEPH      CLOUDY    57  50  77 SE9       29.73F
6HR MIN TEMP:  45; 6HR MAX TEMP:  59;

CHILLICOTHE      N/A     57  44  62 S8        29.79F
6HR MIN TEMP:  54; 6HR MAX TEMP:  59;

KIRKSVILLE     CLOUDY    51  39  63 S9        29.81F
6HR MIN TEMP:  49; 6HR MAX TEMP:  56;


$$
MOZ066>068-077>081-088>096-101>105-280700-
...SOUTHWEST MISSOURI...

CITY           SKY/WX    TMP DP  RH WIND       PRES   REMARKS
SPRINGFIELD    CLOUDY    56  51  84 S20       29.89S
6HR MIN TEMP:  56; 6HR MAX TEMP:  63; 6HR PCP: TRACE;

JOPLIN         CLOUDY    62  58  86 S23G33    29.84F
6HR MIN TEMP:  61; 6HR MAX TEMP:  65;

BRANSON        MOCLDY    57  54  88 S9G18     29.94S

$$
MOZ032>034-039>042-045>050-055>058-069>072-280700-
...CENTRAL MISSOURI...

CITY           SKY/WX    TMP DP  RH WIND       PRES   REMARKS
COLUMBIA       MOCLDY    58  49  72 S18G24    29.87F
6HR MIN TEMP:  57; 6HR MAX TEMP:  62;

JEFFERSON CITY CLOUDY    59  49  69 S14G23    29.89F
6HR MIN TEMP:  58; 6HR MAX TEMP:  63;

ROLLA          MOCLDY    55  50  83 S15G25    29.91F
6HR MIN TEMP:  55; 6HR MAX TEMP:  61; 6HR PCP: TRACE;

SEDALIA        PTCLDY    59  51  75 S16G25    29.84S
6HR MIN TEMP:  58; 6HR MAX TEMP:  62;

WHITEMAN AFB   MOCLDY    59  58  98 S17G24    29.80S
WARRENSBURG    MOCLDY    59  50  72 S13       29.80S
OSAGE BEACH    CLOUDY    58  50  75 S13G21    29.90S

$$
MOZ051-052-059>065-280700-
...EAST CENTRAL MISSOURI...

CITY           SKY/WX    TMP DP  RH WIND       PRES   REMARKS
ST LOUIS INTL  LGT RAIN  58  50  75 S9        29.94F
6HR MIN TEMP:  58; 6HR MAX TEMP:  63; 6HR PCP:  0.02;

SPIRIT OF STL  LGT RAIN  58  51  78 S8G18     29.92F
6HR MIN TEMP:  58; 6HR MAX TEMP:  63; 6HR PCP: TRACE;

ST CHARLES     CLOUDY    56  51  84 S12       29.93F
6HR MIN TEMP:  55; 6HR MAX TEMP:  60; 6HR PCP:  0.07;


$$
MOZ072>076-082>087-097>100-106>115-280700-
...SOUTH CENTRAL AND SOUTHEAST MISSOURI...

CITY           SKY/WX    TMP DP  RH WIND       PRES   REMARKS
CAPE GIRARDEAU CLOUDY    54  48  80 S12       30.03F
6HR MIN TEMP:  52; 6HR MAX TEMP:  59; 6HR PCP:  0.02;

FARMINGTON     LGT RAIN  54  51  90 S14       29.98F
6HR MIN TEMP:  53; 6HR MAX TEMP:  57; 6HR PCP:  0.01;

POPLAR BLUFF   CLOUDY    56  52  86 SE6       30.02F
6HR MIN TEMP:  52; 6HR MAX TEMP:  58; 6HR PCP: TRACE;

WEST PLAINS    CLOUDY    54  51  90 S13G21    29.98F
6HR MIN TEMP:  53; 6HR MAX TEMP:  57;


$$



USA.gov is the U.S. government's official web portal to all federal, state and local government web resources and services.